Карточка аэропорта UUDD

Внимание!
Информация на этой странице в стадии наполнения.
Если вы не увидели какой-то информации, или заметили неточность - пожалуйста сообщите нам!
Спасибо!
Команда XR-STAFF
Название аэропортаДомодедово
Название аэропорта (англ.)Domodedovo
Превышение594 ft. (181.1 m.)
Координаты55°24.516', 37°54.384'
Высота перехода10000 ft
Эшелон переходаQNH>=760mm:FL110; QNH<760=>733:FL120; QNH<733:FL70
Коды ответчика1540-1577
Зона ОрВДМосква РПИ (UUWV)
Данные METARUUDD 232030Z 30004MPS CAVOK 09/M06 Q1003 R32L/CLRD60 NOSIG
Проноз погоды (TAF)UUDD 231955Z 2321/2503 30005MPS 9999 BKN020 TX09/2411Z TN01/2501Z TEMPO 2403/2408 30008G13MPS -SHRASN FEW007 BKN016CB TEMPO 2408/2413 34008G15MPS -SHRA BKN016CB BECMG 2416/2418 01003MPS
NOTAMshow/hide NOTAM
AWOS   TABLE

Информация о ВПП

ВПП Длина ВПП (м.) Покрытие Курс ВПП Частота ILS
14L2370Железобетон135 
32R2370Железобетон315 
14R3500Цементобетон135110.1
32L3500Цементобетон315109.3
143800Цементобетон135108.5
323800Цементобетон315111.9

Диспетчерские позиции

Позывной Наименование органа УВД Частота
UUDD_TWRДомодедово-Вышка118.600
UUDD_TWRДомодедово-Вышка119.700
UUDD_TWRДомодедово-Вышка127.300
UUDD_DELДомодедово-Деливери129.150
UUDD_GNDДомодедово-Перрон119.000
UUDD_R_APPДомодедово-Круг127.700
UUDD_R_APPДомодедово-Круг132.050
UUDD_R_APPДомодедово-Круг119.400
UUDD_R_APPДомодедово-Круг125.300
UUDD_R_APPДомодедово-Круг129.800
UUDD_R_APPДомодедово-Круг134.675



Спутниковое изображение